VK6YY Weather Reports


Display with metric or nautical units.
time (UTC)temp
F
wind
direction
speed
MPH
gust
MPH
rain 1hr
in
rain 24hr
in
rain mn
in
humidity
%
barometer
mb
20260506123027 63 132 3.0 7.0 0.00 0.00 0.00 60 1027.2
20260506121525 64 128 4.0 8.0 0.00 0.00 0.00 60 1027.0
20260506120027 64 134 3.0 6.0 0.00 0.00 0.00 60 1026.9
20260506114532 65 132 4.0 7.0 0.00 0.00 0.00 59 1026.8
20260506113022 65 134 4.0 7.0 0.00 0.00 0.00 58 1026.7
20260506111520 66 138 4.0 9.0 0.00 0.00 0.00 57 1026.6
20260506110020 66 125 3.0 8.0 0.00 0.00 0.00 56 1026.5
20260506104520 66 126 5.0 10.0 0.00 0.00 0.00 56 1026.5
20260506103016 67 119 5.0 11.0 0.00 0.00 0.00 56 1026.3
20260506101516 67 138 6.0 9.0 0.00 0.00 0.00 55 1026.2
20260506100014 67 140 4.0 8.0 0.00 0.00 0.00 55 1026.0
20260506094514 68 149 3.0 9.0 0.00 0.00 0.00 55 1025.8
20260506093052 68 142 4.0 8.0 0.00 0.00 0.00 54 1025.7
20260506091544 69 136 4.0 9.0 0.00 0.00 0.00 53 1025.5
20260506090039 70 152 3.0 9.0 0.00 0.00 0.00 53 1025.5
20260506084539 70 121 5.0 9.0 0.00 0.00 0.00 52 1025.5
20260506083038 71 117 5.0 10.0 0.00 0.00 0.00 49 1025.4
20260506081537 72 102 4.0 9.0 0.00 0.00 0.00 48 1025.4
20260506073033 73 105 6.0 10.0 0.00 0.00 0.00 48 1025.3
20260506071533 72 143 9.0 16.0 0.00 0.00 0.00 48 1025.3
20260506061530 73 80 3.0 8.0 0.00 0.00 0.00 48 1025.3
20260506044510 72 146 3.0 11.0 0.00 0.00 0.00 50 1025.8
20260506043010 72 101 4.0 12.0 0.00 0.00 0.00 49 1026.0
20260506041506 71 57 4.0 8.0 0.00 0.00 0.00 52 1026.2
20260506040001 71 50 3.0 9.0 0.00 0.00 0.00 52 1026.5
20260506034613 71 18 4.0 13.0 0.00 0.00 0.00 52 1026.7
20260506033055 71 81 3.0 9.0 0.00 0.00 0.00 52 1026.7
20260506031600 69 15 3.0 11.0 0.00 0.00 0.00 55 1026.8
20260506030043 69 74 3.0 10.0 0.00 0.00 0.00 57 1027.0
20260506024540 67 96 3.0 10.0 0.00 0.00 0.00 58 1026.9
20260506023037 67 39 2.0 9.0 0.00 0.00 0.00 59 1027.1
20260506021533 65 337 3.0 11.0 0.00 0.00 0.00 61 1027.1
20260506020027 64 137 3.0 10.0 0.00 0.00 0.00 63 1027.1
20260506014518 63 158 3.0 11.0 0.00 0.00 0.00 66 1027.2
20260506013012 62 155 3.0 9.0 0.00 0.00 0.00 68 1027.2
20260506011508 61 117 2.0 9.0 0.00 0.00 0.00 70 1027.2
20260506010011 60 22 4.0 11.0 0.00 0.00 0.00 71 1027.0
20260506004558 59 96 3.0 8.0 0.00 0.00 0.00 73 1027.0
20260506003052 58 101 4.0 8.0 0.00 0.00 0.00 76 1026.9
20260506001547 56 101 3.0 11.0 0.00 0.00 0.00 78 1026.8
20260506000042 55 109 4.0 9.0 0.00 0.00 0.00 78 1026.6
20260505234542 54 65 4.0 9.0 0.00 0.00 0.00 78 1026.4
20260505233035 54 355 3.0 8.0 0.00 0.00 0.00 78 1026.2
20260505231544 55 76 4.0 9.0 0.00 0.00 0.00 78 1026.0
20260505230032 55 90 4.0 9.0 0.00 0.00 0.00 78 1025.7
20260505224523 54 23 3.0 8.0 0.00 0.00 0.00 78 1025.7
20260505223021 54 79 3.0 8.0 0.00 0.00 0.00 77 1025.6
20260505221517 55 136 3.0 7.0 0.00 0.00 0.00 76 1025.4
20260505220014 55 46 4.0 8.0 0.00 0.00 0.00 76 1025.3
20260505214508 55 102 4.0 11.0 0.00 0.00 0.00 76 1025.3
20260505213006 55 25 3.0 9.0 0.00 0.00 0.00 76 1025.2
20260505211503 56 206 4.0 9.0 0.00 0.00 0.00 75 1024.9
20260505210001 56 84 4.0 9.0 0.00 0.00 0.00 75 1024.9
20260505204601 56 109 4.0 11.0 0.00 0.00 0.00 74 1024.9
20260505203057 56 97 3.0 8.0 0.00 0.00 0.00 74 1024.8
20260505201556 56 127 4.0 10.0 0.00 0.00 0.00 73 1024.6
20260505200049 57 133 5.0 13.0 0.00 0.00 0.00 73 1024.6
20260505194542 57 77 3.0 8.0 0.00 0.00 0.00 72 1024.6
20260505193041 57 14 4.0 10.0 0.00 0.00 0.00 72 1024.7
20260505191542 57 82 2.0 7.0 0.00 0.00 0.00 72 1024.6
20260505190044 57 92 2.0 9.0 0.00 0.00 0.00 71 1024.6
20260505184511 57 122 2.0 8.0 0.00 0.00 0.00 71 1024.6
20260505183011 58 58 2.0 7.0 0.00 0.00 0.00 70 1024.8
20260505181506 58 120 3.0 11.0 0.00 0.00 0.00 70 1024.8
20260505180009 58 67 4.0 13.0 0.00 0.00 0.00 70 1024.7
20260505174507 59 98 3.0 10.0 0.00 0.00 0.00 70 1024.7
20260505173004 59 64 5.0 11.0 0.00 0.00 0.00 71 1024.6
20260505171502 58 110 5.0 13.0 0.00 0.00 0.00 72 1024.5
20260505170002 58 123 4.0 9.0 0.00 0.00 0.00 74 1024.5
20260505164622 57 90 3.0 8.0 0.00 0.00 0.00 76 1024.6
20260505163107 56 78 2.0 6.0 0.00 0.00 0.00 77 1024.5
20260505161614 57 109 0.0 2.0 0.00 0.00 0.00 78 1024.3
20260505153056 57 120 0.0 3.0 0.00 0.00 0.00 77 1024.3
20260505151554 58 117 0.0 4.0 0.00 0.00 0.00 77 1024.3
20260505130105 61 132 4.0 6.0 0.00 0.00 0.00 74 1024.3
20260505124551 61 138 3.0 6.0 0.00 0.00 0.00 74 1024.2
20260505124546 61 140 3.0 6.0 0.00 0.00 0.00 74 1024.2